SCP
-0 -0 -0 0 -0 -0 -0 -0 -0 -0 -0 0 0 0 0 0 0 0 0 -0 -0 -0 0 -0 -0 -0 -0 0 0 0 0 -0 -0 -0 -0 -0 -0 -0 -0 -0 -0 -0 -0 -0 -0 -0 -0 -0 -0
-0 0 0 0 -0 -0 -0 -0 -0 0 -0 0 0 0 0 0 0 0 0 0 -0 -0 0 0 -0 -0 -0 -0 0 0 -0 -0 -0 -0 -0 -0 -0 -0 -0 -0 -0 -0 -0 -0 -0 -0 -0 -0 -0
-0 0 0 0 -0 -0 -0 -0 0 0 0 0 0 0 0 0 0 0 0 0 -0 -0 -0 0 0 -0 -0 -0 -0 -0 -0 0 -0 -0 -0 -0 -0 -0 -0 -0 -0 -0 -0 -0 -0 -0 -0 -0 -0
0 0 0 -0 -0 -0 -0 0 0 0 0 0 0 0 0 0 0 0 0 -0 0 0 -0 -0 -0 -0 -0 -0 -0 -0 -0 -0 -0 -0 -0 -0 -0 -0 -0 -0 -0 -0 -0 -0 -0 -0 -0 -0 -0
0 0 0 -0 -0 0 0 0 0 0 0 0 0 0 0 0 -0 -0 0 0 0 -0 -0 0 0 0 -0 0 -0 -0 -0 -0 -0 -0 -0 -0 -0 -0 -0 -0 -0 -0 -0 -0 -0 -0 -0 -0 -0
0 0 0 -0 0 0 0 0 0 0 0 0 0 0 0 0 0 0 0 0 0 0 0 0 0 0 0 0 0 0 0 0 -0 -0 -0 -0 -0 -0 -0 -0 -0 -0 -0 -0 -0 -0 -0 -0 -0
0 0 0 0 0 0 0 0 0 0 0 0 0 0 0 0 0 0 0 0 0 0 0 0 0 0 0 0 0 0 0 -0 -0 -0 -0 -0 -0 -0 -0 -0 -0 -0 -0 -0 -0 -0 -0 -0 -0
0 0 0 0 0 0 -0 -0 0 0 0 0 0 0 0 0 0 0 0 0 0 -0 -0 0 0 0 0 0 0 -0 -0 -0 -0 -0 -0 -0 -0 -0 -0 -0 -0 -0 0 -0 -0 0 0 0 0
0 0 0 0 0 0 0 -0 0 0 -0 0 0 0 0 -0 -0 0 0 0 0 0 0 -0 -0 -0 -0 -0 -0 -0 -0 -0 -0 -0 -0 -0 -0 -0 -0 0 0 0 0 0 0 0 0 0 0
0 0 0 0 0 0 0 0 -0 -0 -0 0 0 0 0 -0 -0 -0 -0 -0 -0 -0 -0 -0 -0 -0 -0 -0 -0 -0 -0 -0 -0 -0 -0 -0 -0 0 0 0 0 0 0 0 0 0 0 0 0
0 0 0 0 0 0 0 0 0 0 0 0 0 0 0 -0 -0 -0 -0 -0 -0 -0 -0 -0 -0 -0 -0 -0 -0 -0 -0 -0 -0 -0 -0 -0 0 0 0 0 0 0 0 0 0 0 0 0 0
0 0 0 0 0 0 0 0 0 0 0 0 0 0 -0 -0 -0 -0 -0 -0 -0 -0 -0 -0 -0 -0 -0 -0 -0 -0 -0 -0 -0 -0 -0 -0 0 0 0 0 0 0 0 0 0 0 0 0 0
0 0 0 0 0 0 0 0 0 0 0 0 0 0 -0 -0 -0 -0 -0 -0 -0 -0 -0 -0 -0 -0 -0 -0 -0 -0 -0 -0 -0 -0 -0 0 0 0 0 0 0 0 0 0 0 0 0 0 0
0 0 0 0 0 0 0 0 0 0 0 0 0 -0 0 -0 -0 0 -0 -0 -0 -0 -0 -0 -0 -0 -0 -0 -0 -0 -0 -0 0 0 0 0 0 0 0 0 0 0 0 0 0 0 0 0 0
0 0 0 0 0 0 0 0 0 0 0 0 0 0 -0 0 0 -0 -0 -0 -0 -0 -0 -0 -0 -0 -0 -0 -0 -0 0 0 0 0 0 0 0 0 0 0 0 0 0 0 0 0 0 0 0
0 0 0 0 0 0 0 0 0 0 0 0 0 0 0 0 0 0 0 0 0 0 0 -0 0 0 -0 0 0 0 0 0 0 0 0 0 0 0 0 0 0 0 0 0 0 0 0 0 0
0 0 0 0 0 0 0 0 0 0 0 0 0 0 0 0 0 0 -0 0 0 0 0 0 0 0 0 0 0 0 0 0 0 0 0 0 0 0 0 0 0 0 0 0 0 0 0 0 0
0 0 0 0 0 0 0 0 0 0 0 0 0 0 0 0 0 0 0 0 0 0 0 0 0 0 0 0 0 0 0 0 0 0 0 0 0 0 0 0 0 0 0 0 0 0 0 0 0
0 0 0 0 0 0 0 0 0 0 0 0 0 0 0 0 0 0 0 0 0 0 0 0 0 0 0 0 0 0 0 0 0 0 0 0 0 0 0 0 0 0 0 0 0 0 0 0 0
0 0 0 0 0 0 0 0 0 0 0 0 0 0 0 0 0 0 0 0 0 0 0 0 0 0 0 0 0 0 0 0 0 0 0 0 0 0 0 0 0 0 0 0 0 0 0 0 0
0 0 0 0 0 0 0 0 0 0 0 0 0 0 0 0 0 0 0 0 0 0 0 0 0 0 0 0 0 0 0 0 0 0 0 0 0 0 0 0 0 0 0 0 0 0 0 0 0
0 0 0 0 0 0 0 0 0 0 0 0 0 0 0 0 0 0 0 0 0 0 0 0 0 0 0 0 0 0 0 0 0 0 0 0 0 0 0 0 0 0 0 0 0 0 0 0 0
0 0 0 0 0 0 0 0 0 0 0 0 0 0 0 0 0 0 0 0 0 0 0 0 0 0 0 0 0 0 0 0 0 0 0 0 0 0 0 0 0 0 0 0 0 0 0 0 0
0 0 0 0 0 0 0 0 0 0 0 0 0 0 0 0 0 0 0 0 0 0 0 0 0 0 0 0 0 0 0 0 0 0 0 0 0 0 0 0 0 0 0 0 0 0 0 0 0
0 0 0 0 0 0 0 0 0 0 0 0 0 0 0 0 0 0 0 0 0 0 0 0 0 0 0 0 0 0 0 0 0 0 0 0 0 0 0 0 0 0 0 0 0 0 0 0 0
0 0 0 0 0 0 0 0 0 0 0 0 0 0 0 0 0 0 0 0 0 0 0 0 0 0 0 0 0 0 0 0 0 0 0 0 0 0 0 0 0 0 0 0 0 0 0 0 0
0 0 0 0 0 0 0 0 0 0 0 0 0 0 0 0 0 0 0 0 0 0 0 0 0 0 0 0 0 0 0 0 0 0 0 0 0 0 0 0 0 0 0 0 0 0 0 0 0
0 0 0 0 0 0 0 0 0 0 0 0 0 0 0 0 0 0 0 0 0 0 0 0 0 0 0 0 0 0 0 0 0 0 0 0 0 0 0 0 0 0 0 0 0 0 0 0 0
0 0 0 0 0 0 0 0 0 0 0 0 0 0 0 0 0 0 0 0 0 0 0 0 0 0 0 0 0 0 0 0 0 0 0 0 0 0 0 0 0 0 0 0 0 0 0 0 0
0 0 0 0 0 0 0 0 0 0 0 0 0 0 0 0 0 0 0 0 0 0 0 0 0 0 0 0 0 0 0 0 0 0 0 0 0 0 0 0 0 0 0 0 0 0 0 0 0
Wind_Speed_500mb
10 9 8 7 8 9 1 6 1 5 3 4 16 8 6 5 6 3 28 35 44 45 43 33 27 25 25 21 22 22 25 29 23 18 19 17 17 23 24 26 29 31 35 34 34 33 33 34 35
9 5 5 6 8 5 6 3 8 6 7 22 16 13 4 2 6 17 40 35 48 47 39 33 30 25 22 17 19 18 20 31 26 19 14 11 14 20 24 26 33 36 33 30 30 31 30 38 40
9 3 3 8 6 6 7 7 8 5 20 8 6 8 4 4 6 39 28 52 55 44 34 32 31 22 21 19 20 20 18 24 23 15 8 8 16 20 21 23 28 31 33 27 27 28 34 35 35
9 3 9 7 4 5 6 5 11 18 3 3 7 9 5 4 21 22 42 53 52 38 40 34 27 23 24 22 21 20 18 18 13 11 8 12 16 18 19 18 21 20 31 25 20 29 35 28 26
11 3 7 7 2 4 5 6 23 10 12 4 5 4 5 9 27 26 48 52 46 44 40 33 30 26 24 25 21 20 19 19 15 14 11 12 15 16 16 15 15 19 27 21 24 28 24 21 17
7 5 7 4 4 3 1 15 15 10 11 10 5 10 7 14 25 35 50 51 45 41 38 30 25 23 21 22 20 19 19 18 17 14 14 13 14 13 15 14 10 17 30 18 16 14 15 13 17
10 7 8 8 3 3 7 20 12 10 11 10 11 9 7 20 27 42 46 48 43 38 36 31 27 24 21 19 18 18 17 17 17 15 14 14 13 13 13 11 7 11 19 16 12 10 10 9 9
10 10 7 3 6 2 12 16 6 11 8 11 14 7 7 27 30 45 46 47 42 38 33 30 30 27 23 20 18 17 17 15 13 12 12 12 12 12 10 8 6 6 13 12 11 9 8 6 3
9 8 5 13 12 5 14 8 10 9 11 12 16 8 14 35 36 48 50 50 45 40 36 32 31 29 26 22 19 18 17 14 12 10 8 8 8 8 8 7 6 5 11 8 9 8 6 3 0
7 8 17 11 10 9 18 9 20 10 8 11 14 15 13 40 41 53 54 57 53 47 43 38 35 32 30 26 23 21 18 16 15 12 10 7 6 5 6 5 5 4 6 6 7 6 5 4 2
6 10 11 9 8 11 20 6 11 13 6 18 24 23 22 37 44 47 52 52 50 46 45 42 39 35 34 30 28 25 21 19 18 16 12 8 4 2 3 2 2 1 3 4 4 3 3 3 4
9 5 11 12 12 15 16 14 7 17 8 2 9 16 25 34 43 45 48 51 51 49 47 44 41 39 37 35 33 29 26 24 21 18 17 15 12 9 8 7 5 3 1 1 2 2 3 5 5
5 8 11 13 14 16 16 5 6 17 18 21 8 17 26 29 35 39 37 41 44 47 44 43 41 40 38 37 36 36 33 31 28 27 25 22 18 15 13 12 11 9 7 7 6 3 0 3 5
10 13 13 8 8 8 5 2 3 3 3 21 24 12 23 31 33 37 40 41 45 40 39 37 39 38 38 38 37 39 38 36 35 33 29 27 25 23 21 21 17 16 12 11 9 8 7 9 13
20 10 5 5 3 5 2 8 12 12 13 6 20 18 18 29 35 37 34 37 39 39 36 39 37 37 39 37 35 33 34 35 38 37 36 34 33 31 30 28 22 18 18 18 16 16 15 18 19
10 11 7 2 5 1 6 14 4 4 7 10 9 15 26 26 32 36 37 39 40 43 44 39 40 43 43 44 42 40 37 34 32 34 38 39 38 38 37 35 30 28 25 29 29 30 29 28 28
13 8 6 2 0 3 7 11 4 4 5 3 9 9 17 23 31 36 39 43 43 44 46 47 47 48 48 50 50 48 46 44 41 38 37 36 37 38 41 38 36 37 36 38 39 40 44 44 42
12 9 4 6 4 3 6 17 14 15 16 25 24 21 24 25 22 25 30 36 43 46 46 49 50 51 52 53 56 57 58 57 55 53 47 42 42 42 47 46 44 45 48 48 45 45 48 52 55
14 10 9 4 2 2 6 10 20 30 23 29 29 28 34 34 31 30 36 41 41 41 45 49 50 52 54 57 61 64 64 63 63 63 57 53 50 49 52 53 54 55 59 56 53 54 58 52 62
10 10 5 5 6 4 5 14 15 20 9 16 21 15 14 15 14 12 16 23 42 45 44 46 48 53 55 56 57 62 62 63 62 64 63 62 60 58 56 59 60 57 61 65 65 67 67 63 63
3 13 9 8 4 6 6 13 9 5 12 23 27 18 17 19 20 21 15 9 4 27 39 40 40 43 50 54 57 59 62 65 65 66 65 62 61 62 64 65 68 69 68 68 71 75 79 79 82
10 9 12 14 7 5 6 6 8 7 8 22 32 31 28 28 31 33 33 29 27 21 8 13 23 30 33 39 49 56 60 64 63 64 65 64 61 62 64 66 70 73 71 70 75 77 80 83 86
7 11 12 8 9 7 4 7 12 7 9 10 23 37 45 51 52 53 53 49 45 35 27 23 15 5 9 19 26 33 44 52 55 59 62 63 65 64 64 64 67 68 70 72 76 77 77 78 80
19 14 16 9 6 1 2 8 9 3 7 5 11 37 50 54 57 56 55 54 55 53 51 46 37 29 21 12 4 7 16 24 33 38 46 51 54 57 59 59 58 63 72 69 73 74 75 74 80
8 11 5 4 4 9 5 5 12 3 2 9 17 31 39 46 48 48 47 46 43 42 42 41 40 40 36 30 22 15 9 12 18 25 33 39 44 48 51 53 53 57 63 68 71 77 79 78 81
13 12 11 14 8 4 4 11 8 2 9 16 28 36 39 41 41 41 39 37 35 34 32 30 29 29 29 28 27 25 20 16 13 18 25 31 35 38 42 46 50 53 57 63 68 76 79 82 83
12 9 9 14 5 6 7 8 7 3 12 23 26 32 36 37 35 35 33 34 33 33 33 32 29 28 25 26 25 23 24 24 24 24 24 22 23 26 30 36 41 45 50 54 61 70 76 82 84
7 15 8 5 8 7 6 7 9 15 18 14 17 28 32 30 30 30 28 29 28 26 25 24 26 28 29 27 27 29 28 27 28 29 31 32 33 36 37 39 41 42 45 48 55 62 68 75 81
5 5 7 9 7 11 6 12 11 26 18 19 24 27 30 29 29 28 28 28 28 26 25 26 25 25 25 28 29 31 33 33 33 33 35 39 41 43 44 45 47 49 50 51 56 61 65 72 77
3 12 11 10 10 2 6 9 6 23 30 34 27 26 29 26 26 26 25 22 21 21 21 23 23 25 28 30 31 33 34 34 34 36 38 41 44 46 50 52 54 55 57 58 61 65 67 72 78
Wind_Direction_500mb
307 317 331 354 56 67 190 233 304 139 144 127 128 142 175 103 162 181 147 159 161 152 149 146 136 132 140 151 137 125 119 118 120 114 98 92 78 82 92 91 90 92 95 90 91 93 100 98 96
276 277 322 71 84 69 262 236 193 193 134 120 109 105 76 102 119 146 149 161 159 155 154 153 142 136 128 124 130 128 123 118 111 114 101 90 89 90 102 100 93 93 97 101 88 93 92 102 96
227 226 20 86 100 170 208 212 151 130 128 104 107 82 89 106 134 149 150 156 158 161 158 154 143 134 130 125 111 111 120 131 130 137 128 73 72 81 99 100 104 100 104 96 89 84 95 90 100
174 144 60 81 167 225 203 166 157 132 179 79 124 86 96 128 150 155 153 158 160 163 155 148 142 141 130 123 119 120 128 137 140 125 114 65 73 83 96 106 105 100 111 113 98 95 98 108 115
168 118 67 83 273 285 248 169 152 133 137 148 151 151 81 144 162 159 159 161 163 161 159 153 149 141 138 131 130 130 131 134 129 116 105 88 90 88 96 107 108 96 101 101 102 99 110 113 118
134 114 72 160 239 309 45 167 155 132 137 151 129 121 127 158 163 164 164 164 165 166 166 164 157 147 145 138 143 143 136 131 126 117 103 98 96 99 99 115 114 95 115 127 115 111 110 100 97
137 92 149 154 158 42 171 154 169 148 145 178 146 128 146 170 167 168 167 171 172 176 175 177 174 166 160 148 151 157 148 144 136 123 103 89 86 83 86 92 80 84 116 129 120 110 104 86 76
163 98 109 185 153 218 166 153 193 164 187 157 161 167 142 175 172 172 171 174 179 183 188 187 185 181 177 167 161 167 164 153 141 126 108 95 89 92 94 95 94 88 117 125 112 123 120 108 91
150 69 146 184 157 194 161 162 163 161 155 174 187 156 138 175 176 179 180 183 187 193 196 197 196 193 192 187 177 181 177 173 170 152 133 114 103 104 115 120 118 109 116 113 124 145 133 117 313
103 106 199 181 184 174 172 185 164 155 160 206 205 197 168 179 185 186 190 193 197 198 198 201 203 203 204 201 200 200 195 196 194 189 186 172 150 138 128 117 117 110 87 107 116 131 126 112 66
126 163 166 176 175 154 158 164 171 161 208 219 215 202 189 185 193 197 200 205 205 206 208 208 209 211 214 214 215 215 215 215 213 213 214 219 232 216 202 176 191 102 54 58 73 75 74 53 26
101 106 138 142 132 137 159 149 187 214 199 185 235 215 202 194 201 206 206 206 208 212 216 217 217 220 222 223 226 228 230 233 234 235 240 242 243 239 231 228 233 235 263 219 142 88 49 28 9
97 142 122 126 128 130 146 164 228 251 236 238 267 217 211 206 210 211 215 212 212 216 218 219 221 225 227 233 234 236 238 240 240 239 241 244 247 248 249 252 252 240 241 228 204 170 137 342 332
131 122 117 121 120 103 152 176 188 249 298 234 228 221 222 215 212 211 213 216 218 218 221 220 221 225 231 239 243 246 244 244 245 246 248 250 253 253 251 248 255 245 241 237 237 245 276 305 310
122 89 83 63 120 66 96 297 232 242 270 285 227 226 229 222 221 225 229 225 226 227 223 223 226 229 234 241 247 251 253 252 252 254 254 253 254 255 254 249 252 256 258 256 242 236 265 280 295
83 57 117 20 158 48 111 260 298 319 228 247 249 237 238 237 237 237 238 238 236 235 236 233 232 233 237 242 248 253 257 260 262 259 256 256 256 253 253 253 252 256 257 257 259 260 261 267 262
17 169 167 308 21 120 108 273 311 170 131 278 318 292 258 253 247 249 245 243 241 243 241 240 240 241 242 245 248 253 258 261 265 265 259 257 257 255 255 258 257 255 259 259 263 265 263 262 264
178 145 158 190 233 53 110 265 288 277 284 289 301 293 283 276 271 268 260 250 246 244 244 243 245 247 246 246 248 251 252 256 259 262 263 264 263 262 260 259 262 260 259 259 259 266 270 268 268
129 118 136 158 38 207 214 267 280 287 284 292 300 299 291 292 283 263 257 251 244 238 239 242 243 245 245 244 245 247 251 254 257 261 268 270 268 266 263 263 264 263 265 269 262 263 264 270 272
115 119 136 77 52 146 7 281 271 314 315 332 318 324 319 306 288 258 250 255 239 234 234 239 242 245 247 250 252 252 256 260 262 264 268 272 273 272 269 266 264 263 264 266 265 263 262 264 267
108 146 173 146 115 64 329 312 337 12 40 48 52 70 61 72 87 94 97 94 181 226 230 238 242 246 247 248 251 253 255 259 262 262 265 269 274 276 275 273 270 271 267 267 268 266 263 262 262
153 168 125 121 102 190 0 267 313 327 41 39 49 59 68 86 93 91 89 89 86 87 126 223 242 247 250 250 251 254 258 259 264 268 273 275 277 278 280 278 274 276 279 275 274 267 270 263 268
174 118 115 98 97 98 335 89 269 316 52 20 45 75 84 90 91 88 85 82 81 83 82 82 89 128 230 246 255 261 264 266 269 270 273 275 278 281 281 281 278 278 280 277 279 273 276 272 272
151 83 55 52 87 91 198 140 279 214 164 114 81 96 95 92 90 88 86 84 80 78 78 77 75 74 69 61 14 278 269 273 274 275 277 280 281 282 282 283 282 282 280 279 278 282 280 280 280
86 98 49 12 357 215 4 110 239 233 104 147 129 107 96 93 94 93 89 84 80 74 70 70 70 72 70 67 60 41 2 313 295 286 281 278 280 279 280 282 277 275 274 277 278 277 277 278 276
182 164 157 190 188 224 67 222 241 216 129 128 123 108 98 93 89 83 78 76 73 70 66 64 62 61 59 55 50 41 33 18 341 305 289 283 280 280 279 276 272 269 265 265 271 272 274 274 272
183 193 143 105 29 74 207 277 311 105 121 135 127 112 100 100 93 84 76 68 62 57 57 58 58 57 52 44 34 26 19 11 2 351 338 323 307 296 287 282 280 278 275 270 268 265 265 268 270
160 158 80 12 132 223 262 258 215 181 176 173 140 115 110 101 93 83 72 67 64 60 58 54 51 48 45 39 31 23 13 3 352 342 333 327 319 308 303 298 293 288 282 278 275 273 272 272 274
126 181 61 121 140 163 160 250 214 178 166 160 150 130 124 113 100 89 82 77 73 72 67 60 55 47 38 30 20 8 1 355 348 340 332 325 322 317 311 305 299 295 292 289 284 281 279 277 277
169 182 162 144 219 260 143 269 162 149 163 154 142 135 127 119 112 106 100 91 81 65 53 41 29 17 13 7 360 355 353 350 347 342 335 328 323 321 317 313 308 304 301 296 290 287 283 280 279
Wind_Speed_850mb
10 9 8 7 8 9 1 6 1 5 3 4 16 8 6 5 6 3 28 35 44 45 43 33 27 25 25 21 22 22 25 29 23 18 19 17 17 23 24 26 29 31 35 34 34 33 33 34 35
9 5 5 6 8 5 6 3 8 6 7 22 16 13 4 2 6 17 40 35 48 47 39 33 30 25 22 17 19 18 20 31 26 19 14 11 14 20 24 26 33 36 33 30 30 31 30 38 40
9 3 3 8 6 6 7 7 8 5 20 8 6 8 4 4 6 39 28 52 55 44 34 32 31 22 21 19 20 20 18 24 23 15 8 8 16 20 21 23 28 31 33 27 27 28 34 35 35
9 3 9 7 4 5 6 5 11 18 3 3 7 9 5 4 21 22 42 53 52 38 40 34 27 23 24 22 21 20 18 18 13 11 8 12 16 18 19 18 21 20 31 25 20 29 35 28 26
11 3 7 7 2 4 5 6 23 10 12 4 5 4 5 9 27 26 48 52 46 44 40 33 30 26 24 25 21 20 19 19 15 14 11 12 15 16 16 15 15 19 27 21 24 28 24 21 17
7 5 7 4 4 3 1 15 15 10 11 10 5 10 7 14 25 35 50 51 45 41 38 30 25 23 21 22 20 19 19 18 17 14 14 13 14 13 15 14 10 17 30 18 16 14 15 13 17
10 7 8 8 3 3 7 20 12 10 11 10 11 9 7 20 27 42 46 48 43 38 36 31 27 24 21 19 18 18 17 17 17 15 14 14 13 13 13 11 7 11 19 16 12 10 10 9 9
10 10 7 3 6 2 12 16 6 11 8 11 14 7 7 27 30 45 46 47 42 38 33 30 30 27 23 20 18 17 17 15 13 12 12 12 12 12 10 8 6 6 13 12 11 9 8 6 3
9 8 5 13 12 5 14 8 10 9 11 12 16 8 14 35 36 48 50 50 45 40 36 32 31 29 26 22 19 18 17 14 12 10 8 8 8 8 8 7 6 5 11 8 9 8 6 3 0
7 8 17 11 10 9 18 9 20 10 8 11 14 15 13 40 41 53 54 57 53 47 43 38 35 32 30 26 23 21 18 16 15 12 10 7 6 5 6 5 5 4 6 6 7 6 5 4 2
6 10 11 9 8 11 20 6 11 13 6 18 24 23 22 37 44 47 52 52 50 46 45 42 39 35 34 30 28 25 21 19 18 16 12 8 4 2 3 2 2 1 3 4 4 3 3 3 4
9 5 11 12 12 15 16 14 7 17 8 2 9 16 25 34 43 45 48 51 51 49 47 44 41 39 37 35 33 29 26 24 21 18 17 15 12 9 8 7 5 3 1 1 2 2 3 5 5
5 8 11 13 14 16 16 5 6 17 18 21 8 17 26 29 35 39 37 41 44 47 44 43 41 40 38 37 36 36 33 31 28 27 25 22 18 15 13 12 11 9 7 7 6 3 0 3 5
10 13 13 8 8 8 5 2 3 3 3 21 24 12 23 31 33 37 40 41 45 40 39 37 39 38 38 38 37 39 38 36 35 33 29 27 25 23 21 21 17 16 12 11 9 8 7 9 13
20 10 5 5 3 5 2 8 12 12 13 6 20 18 18 29 35 37 34 37 39 39 36 39 37 37 39 37 35 33 34 35 38 37 36 34 33 31 30 28 22 18 18 18 16 16 15 18 19
10 11 7 2 5 1 6 14 4 4 7 10 9 15 26 26 32 36 37 39 40 43 44 39 40 43 43 44 42 40 37 34 32 34 38 39 38 38 37 35 30 28 25 29 29 30 29 28 28
13 8 6 2 0 3 7 11 4 4 5 3 9 9 17 23 31 36 39 43 43 44 46 47 47 48 48 50 50 48 46 44 41 38 37 36 37 38 41 38 36 37 36 38 39 40 44 44 42
12 9 4 6 4 3 6 17 14 15 16 25 24 21 24 25 22 25 30 36 43 46 46 49 50 51 52 53 56 57 58 57 55 53 47 42 42 42 47 46 44 45 48 48 45 45 48 52 55
14 10 9 4 2 2 6 10 20 30 23 29 29 28 34 34 31 30 36 41 41 41 45 49 50 52 54 57 61 64 64 63 63 63 57 53 50 49 52 53 54 55 59 56 53 54 58 52 62
10 10 5 5 6 4 5 14 15 20 9 16 21 15 14 15 14 12 16 23 42 45 44 46 48 53 55 56 57 62 62 63 62 64 63 62 60 58 56 59 60 57 61 65 65 67 67 63 63
3 13 9 8 4 6 6 13 9 5 12 23 27 18 17 19 20 21 15 9 4 27 39 40 40 43 50 54 57 59 62 65 65 66 65 62 61 62 64 65 68 69 68 68 71 75 79 79 82
10 9 12 14 7 5 6 6 8 7 8 22 32 31 28 28 31 33 33 29 27 21 8 13 23 30 33 39 49 56 60 64 63 64 65 64 61 62 64 66 70 73 71 70 75 77 80 83 86
7 11 12 8 9 7 4 7 12 7 9 10 23 37 45 51 52 53 53 49 45 35 27 23 15 5 9 19 26 33 44 52 55 59 62 63 65 64 64 64 67 68 70 72 76 77 77 78 80
19 14 16 9 6 1 2 8 9 3 7 5 11 37 50 54 57 56 55 54 55 53 51 46 37 29 21 12 4 7 16 24 33 38 46 51 54 57 59 59 58 63 72 69 73 74 75 74 80
8 11 5 4 4 9 5 5 12 3 2 9 17 31 39 46 48 48 47 46 43 42 42 41 40 40 36 30 22 15 9 12 18 25 33 39 44 48 51 53 53 57 63 68 71 77 79 78 81
13 12 11 14 8 4 4 11 8 2 9 16 28 36 39 41 41 41 39 37 35 34 32 30 29 29 29 28 27 25 20 16 13 18 25 31 35 38 42 46 50 53 57 63 68 76 79 82 83
12 9 9 14 5 6 7 8 7 3 12 23 26 32 36 37 35 35 33 34 33 33 33 32 29 28 25 26 25 23 24 24 24 24 24 22 23 26 30 36 41 45 50 54 61 70 76 82 84
7 15 8 5 8 7 6 7 9 15 18 14 17 28 32 30 30 30 28 29 28 26 25 24 26 28 29 27 27 29 28 27 28 29 31 32 33 36 37 39 41 42 45 48 55 62 68 75 81
5 5 7 9 7 11 6 12 11 26 18 19 24 27 30 29 29 28 28 28 28 26 25 26 25 25 25 28 29 31 33 33 33 33 35 39 41 43 44 45 47 49 50 51 56 61 65 72 77
3 12 11 10 10 2 6 9 6 23 30 34 27 26 29 26 26 26 25 22 21 21 21 23 23 25 28 30 31 33 34 34 34 36 38 41 44 46 50 52 54 55 57 58 61 65 67 72 78
Wind_Direction_850mb
307 317 331 354 56 67 190 233 304 139 144 127 128 142 175 103 162 181 147 159 161 152 149 146 136 132 140 151 137 125 119 118 120 114 98 92 78 82 92 91 90 92 95 90 91 93 100 98 96
276 277 322 71 84 69 262 236 193 193 134 120 109 105 76 102 119 146 149 161 159 155 154 153 142 136 128 124 130 128 123 118 111 114 101 90 89 90 102 100 93 93 97 101 88 93 92 102 96
227 226 20 86 100 170 208 212 151 130 128 104 107 82 89 106 134 149 150 156 158 161 158 154 143 134 130 125 111 111 120 131 130 137 128 73 72 81 99 100 104 100 104 96 89 84 95 90 100
174 144 60 81 167 225 203 166 157 132 179 79 124 86 96 128 150 155 153 158 160 163 155 148 142 141 130 123 119 120 128 137 140 125 114 65 73 83 96 106 105 100 111 113 98 95 98 108 115
168 118 67 83 273 285 248 169 152 133 137 148 151 151 81 144 162 159 159 161 163 161 159 153 149 141 138 131 130 130 131 134 129 116 105 88 90 88 96 107 108 96 101 101 102 99 110 113 118
134 114 72 160 239 309 45 167 155 132 137 151 129 121 127 158 163 164 164 164 165 166 166 164 157 147 145 138 143 143 136 131 126 117 103 98 96 99 99 115 114 95 115 127 115 111 110 100 97
137 92 149 154 158 42 171 154 169 148 145 178 146 128 146 170 167 168 167 171 172 176 175 177 174 166 160 148 151 157 148 144 136 123 103 89 86 83 86 92 80 84 116 129 120 110 104 86 76
163 98 109 185 153 218 166 153 193 164 187 157 161 167 142 175 172 172 171 174 179 183 188 187 185 181 177 167 161 167 164 153 141 126 108 95 89 92 94 95 94 88 117 125 112 123 120 108 91
150 69 146 184 157 194 161 162 163 161 155 174 187 156 138 175 176 179 180 183 187 193 196 197 196 193 192 187 177 181 177 173 170 152 133 114 103 104 115 120 118 109 116 113 124 145 133 117 313
103 106 199 181 184 174 172 185 164 155 160 206 205 197 168 179 185 186 190 193 197 198 198 201 203 203 204 201 200 200 195 196 194 189 186 172 150 138 128 117 117 110 87 107 116 131 126 112 66
126 163 166 176 175 154 158 164 171 161 208 219 215 202 189 185 193 197 200 205 205 206 208 208 209 211 214 214 215 215 215 215 213 213 214 219 232 216 202 176 191 102 54 58 73 75 74 53 26
101 106 138 142 132 137 159 149 187 214 199 185 235 215 202 194 201 206 206 206 208 212 216 217 217 220 222 223 226 228 230 233 234 235 240 242 243 239 231 228 233 235 263 219 142 88 49 28 9
97 142 122 126 128 130 146 164 228 251 236 238 267 217 211 206 210 211 215 212 212 216 218 219 221 225 227 233 234 236 238 240 240 239 241 244 247 248 249 252 252 240 241 228 204 170 137 342 332
131 122 117 121 120 103 152 176 188 249 298 234 228 221 222 215 212 211 213 216 218 218 221 220 221 225 231 239 243 246 244 244 245 246 248 250 253 253 251 248 255 245 241 237 237 245 276 305 310
122 89 83 63 120 66 96 297 232 242 270 285 227 226 229 222 221 225 229 225 226 227 223 223 226 229 234 241 247 251 253 252 252 254 254 253 254 255 254 249 252 256 258 256 242 236 265 280 295
83 57 117 20 158 48 111 260 298 319 228 247 249 237 238 237 237 237 238 238 236 235 236 233 232 233 237 242 248 253 257 260 262 259 256 256 256 253 253 253 252 256 257 257 259 260 261 267 262
17 169 167 308 21 120 108 273 311 170 131 278 318 292 258 253 247 249 245 243 241 243 241 240 240 241 242 245 248 253 258 261 265 265 259 257 257 255 255 258 257 255 259 259 263 265 263 262 264
178 145 158 190 233 53 110 265 288 277 284 289 301 293 283 276 271 268 260 250 246 244 244 243 245 247 246 246 248 251 252 256 259 262 263 264 263 262 260 259 262 260 259 259 259 266 270 268 268
129 118 136 158 38 207 214 267 280 287 284 292 300 299 291 292 283 263 257 251 244 238 239 242 243 245 245 244 245 247 251 254 257 261 268 270 268 266 263 263 264 263 265 269 262 263 264 270 272
115 119 136 77 52 146 7 281 271 314 315 332 318 324 319 306 288 258 250 255 239 234 234 239 242 245 247 250 252 252 256 260 262 264 268 272 273 272 269 266 264 263 264 266 265 263 262 264 267
108 146 173 146 115 64 329 312 337 12 40 48 52 70 61 72 87 94 97 94 181 226 230 238 242 246 247 248 251 253 255 259 262 262 265 269 274 276 275 273 270 271 267 267 268 266 263 262 262
153 168 125 121 102 190 0 267 313 327 41 39 49 59 68 86 93 91 89 89 86 87 126 223 242 247 250 250 251 254 258 259 264 268 273 275 277 278 280 278 274 276 279 275 274 267 270 263 268
174 118 115 98 97 98 335 89 269 316 52 20 45 75 84 90 91 88 85 82 81 83 82 82 89 128 230 246 255 261 264 266 269 270 273 275 278 281 281 281 278 278 280 277 279 273 276 272 272
151 83 55 52 87 91 198 140 279 214 164 114 81 96 95 92 90 88 86 84 80 78 78 77 75 74 69 61 14 278 269 273 274 275 277 280 281 282 282 283 282 282 280 279 278 282 280 280 280
86 98 49 12 357 215 4 110 239 233 104 147 129 107 96 93 94 93 89 84 80 74 70 70 70 72 70 67 60 41 2 313 295 286 281 278 280 279 280 282 277 275 274 277 278 277 277 278 276
182 164 157 190 188 224 67 222 241 216 129 128 123 108 98 93 89 83 78 76 73 70 66 64 62 61 59 55 50 41 33 18 341 305 289 283 280 280 279 276 272 269 265 265 271 272 274 274 272
183 193 143 105 29 74 207 277 311 105 121 135 127 112 100 100 93 84 76 68 62 57 57 58 58 57 52 44 34 26 19 11 2 351 338 323 307 296 287 282 280 278 275 270 268 265 265 268 270
160 158 80 12 132 223 262 258 215 181 176 173 140 115 110 101 93 83 72 67 64 60 58 54 51 48 45 39 31 23 13 3 352 342 333 327 319 308 303 298 293 288 282 278 275 273 272 272 274
126 181 61 121 140 163 160 250 214 178 166 160 150 130 124 113 100 89 82 77 73 72 67 60 55 47 38 30 20 8 1 355 348 340 332 325 322 317 311 305 299 295 292 289 284 281 279 277 277
169 182 162 144 219 260 143 269 162 149 163 154 142 135 127 119 112 106 100 91 81 65 53 41 29 17 13 7 360 355 353 350 347 342 335 328 323 321 317 313 308 304 301 296 290 287 283 280 279